Wind_Speed
12 12 12 12 12 13 13 14 14 14 14 15 15 15 15 15 16 16 16 16 17 17 17 17 16 16 16 16 17 17 18 18 18 18 18 19 19 19 19 19 19 19 20
13 13 13 13 14 14 14 15 15 15 15 16 16 16 16 16 17 17 17 17 18 18 18 18 18 18 18 18 18 19 19 19 20 20 20 21 21 22 22 22 22 22 22
13 13 13 14 15 15 16 16 16 16 17 17 17 17 18 18 18 18 18 18 19 19 19 20 19 19 20 20 21 21 21 21 22 22 22 23 23 24 24 24 25 25 25
14 14 15 15 15 16 17 17 18 18 18 18 19 18 18 18 18 18 18 19 19 20 20 20 21 21 21 22 22 22 22 23 24 24 24 24 25 25 26 26 27 27 28
15 15 16 16 16 16 17 18 18 18 19 19 19 19 18 19 19 19 19 19 20 21 21 22 22 23 23 23 24 24 24 25 25 26 26 26 27 27 28 28 29 30 30
15 15 16 16 17 17 18 18 18 19 19 19 19 20 20 20 20 21 21 21 22 22 22 22 23 24 24 24 25 25 26 26 27 27 28 28 28 29 29 30 30 31 31
16 16 16 17 17 18 18 19 19 19 19 19 20 20 21 22 22 22 23 23 23 23 23 24 24 25 25 26 26 27 27 28 28 29 29 30 30 30 31 31 31 32 32
16 17 17 17 18 18 18 19 19 20 20 21 21 21 21 22 22 22 22 22 23 24 24 24 25 26 27 27 28 28 28 29 30 30 30 31 31 32 32 33 33 34 35
17 17 17 18 18 19 19 19 20 21 21 22 22 22 22 22 22 23 23 23 24 25 26 26 26 27 27 28 29 29 30 30 31 31 32 33 34 35 36 36 37 38 38
17 17 18 19 19 20 20 21 21 22 22 23 23 23 23 23 24 24 24 24 25 25 26 27 27 28 28 29 30 31 31 32 33 33 34 36 37 38 38 39 40 41 42
17 18 18 19 19 20 21 22 22 23 23 23 23 23 24 24 24 25 25 25 26 27 27 28 29 30 31 31 32 33 34 35 35 36 37 38 39 40 41 42 43 44 44
18 19 19 19 20 21 22 22 23 23 23 24 24 25 25 25 26 26 27 27 28 29 29 30 31 32 33 34 34 35 36 37 38 39 40 41 42 42 43 44 45 46 47
20 20 20 21 22 23 23 23 24 24 24 25 26 26 27 27 28 29 29 30 30 31 31 32 33 34 35 35 36 37 38 39 40 41 42 43 44 44 45 46 47 48 48
21 22 22 23 23 23 24 24 25 26 26 27 27 28 28 29 30 30 31 32 32 33 34 34 35 36 37 38 39 40 41 42 43 44 45 46 46 46 47 48 48 49 50
23 23 23 23 24 24 25 26 27 27 28 29 29 30 30 31 32 33 33 34 35 36 36 37 37 38 39 40 41 42 43 44 45 45 46 46 46 47 48 49 49 50 51
24 24 25 25 25 26 27 28 28 29 30 31 31 32 32 33 34 35 35 36 37 37 38 39 39 40 41 42 43 44 44 45 46 47 47 47 48 49 49 50 51 51 51
24 24 25 26 28 29 29 29 30 31 32 33 33 34 34 35 36 36 37 38 39 40 40 41 41 42 42 43 44 45 46 46 47 47 48 49 50 50 51 51 51 51 50
26 26 27 28 29 30 31 31 32 33 34 34 35 36 36 37 37 38 39 39 40 41 41 41 42 43 44 45 45 46 46 47 47 48 49 49 50 50 51 51 51 50 50
28 28 29 30 31 32 32 33 34 35 36 36 37 38 38 39 39 40 40 41 41 41 42 42 43 44 45 46 46 47 47 48 49 49 50 50 50 50 50 50 50 49 49
29 30 31 32 33 34 34 35 36 36 37 38 39 39 40 40 41 41 42 42 43 43 44 45 45 46 47 47 47 48 48 49 49 50 50 50 50 50 49 49 49 49 48
31 32 33 34 35 36 36 37 37 38 38 39 40 41 41 42 42 42 43 43 44 45 46 46 47 47 47 47 48 48 48 49 49 49 50 50 49 49 49 49 48 48 48
33 33 34 35 36 36 37 37 38 39 40 40 41 41 42 43 43 43 44 45 46 46 47 47 47 47 47 47 48 48 49 49 49 49 49 49 49 48 48 48 47 48 48
34 34 35 36 37 37 38 38 39 40 41 41 41 42 42 43 43 44 45 45 46 45 46 46 46 47 47 47 48 48 49 49 49 49 48 48 48 47 47 47 47 47 47
35 36 36 37 38 39 39 40 41 41 42 42 43 43 43 43 43 44 44 44 44 44 45 45 46 46 46 47 47 47 47 48 48 47 47 47 46 46 46 46 46 46 46
37 37 38 39 40 41 41 41 42 42 42 43 43 43 43 43 43 43 43 43 44 44 44 45 45 45 46 46 47 46 46 47 47 46 46 46 46 45 45 46 46 45 45
38 39 40 40 41 41 41 41 41 42 43 43 43 42 42 42 43 43 43 43 43 43 44 44 45 45 45 45 45 46 46 46 46 46 45 45 45 45 45 45 44 44 44
Wind_Direction
252 257 260 263 269 273 275 278 280 282 284 287 290 291 291 291 293 293 295 296 297 297 298 299 299 299 299 301 301 300 299 299 300 301 301 301 302 303 302 300 297 294 292
255 259 261 264 271 274 276 278 279 281 284 286 290 291 292 293 294 293 294 295 295 296 296 296 298 297 298 298 299 298 298 298 299 298 298 298 299 299 299 297 296 293 292
258 261 263 267 271 274 276 279 279 281 282 284 288 290 291 293 294 294 294 294 294 295 296 296 296 296 297 297 297 297 297 297 297 297 297 297 298 298 298 296 295 295 293
259 262 263 267 272 275 278 279 279 280 281 282 286 288 289 291 292 293 294 294 293 294 295 295 296 296 296 296 297 298 297 296 296 297 297 297 297 297 297 297 296 295 294
262 264 264 267 270 274 277 279 280 282 282 284 285 286 288 289 291 292 294 294 294 295 294 294 295 295 295 296 296 296 296 295 296 296 297 297 297 296 296 297 297 296 294
264 266 266 268 271 275 278 279 281 283 284 285 285 286 287 288 289 290 291 293 294 294 294 294 295 297 297 298 298 297 297 296 296 297 297 297 297 297 297 297 297 296 295
265 266 269 271 274 277 279 281 282 283 285 287 287 288 288 289 290 291 292 292 293 293 293 293 295 296 297 298 298 298 297 297 297 297 297 297 298 297 296 296 296 296 296
268 269 271 274 276 278 281 282 282 283 285 287 288 287 290 292 293 292 293 293 292 293 294 295 295 295 295 296 298 297 297 297 297 298 298 299 299 298 297 296 295 296 296
269 270 271 275 277 279 281 282 283 284 286 286 288 289 291 291 292 293 293 292 292 293 294 294 295 295 296 297 298 298 297 297 297 296 297 298 298 297 297 296 295 296 296
270 270 272 276 278 280 282 283 284 286 287 287 287 290 290 290 290 291 292 292 292 294 295 295 295 296 296 298 299 298 298 297 297 297 297 298 298 297 297 296 296 296 296
271 272 275 279 280 281 282 283 285 286 288 288 289 291 292 291 291 292 292 292 293 294 294 294 294 295 296 297 297 298 297 297 297 296 296 297 297 297 296 296 296 296 296
272 274 277 279 281 282 283 284 286 287 287 289 290 291 293 293 294 294 294 294 294 294 293 294 294 294 295 296 297 297 297 297 297 297 297 297 296 296 296 297 297 297 296
273 275 277 280 282 283 283 284 286 288 289 291 292 292 293 294 294 294 293 293 293 293 293 293 293 294 294 295 296 296 297 297 297 297 297 297 296 296 296 296 297 297 297
274 276 278 280 281 282 283 284 286 288 289 290 291 291 292 293 293 293 293 293 293 293 294 294 294 295 295 295 296 297 297 297 298 298 298 298 298 297 297 296 297 297 297
276 277 279 281 281 282 282 284 285 287 289 289 290 290 291 291 292 293 293 293 293 293 294 294 294 295 295 295 296 296 297 297 298 298 299 299 298 298 298 298 298 298 297
276 278 278 281 283 283 283 284 285 287 289 290 291 291 291 291 292 292 293 293 294 294 294 294 294 295 296 296 296 296 296 297 297 298 299 299 299 299 299 298 299 298 298
278 278 279 281 283 284 283 284 286 287 287 289 290 291 291 292 292 292 292 293 294 294 294 294 294 295 296 296 296 296 297 297 297 298 298 299 299 299 299 299 299 299 298
278 280 281 282 283 284 284 285 286 287 287 288 289 290 291 291 292 292 293 293 294 294 294 294 295 296 296 297 297 297 297 297 298 298 299 299 299 300 300 300 299 298 298
279 280 281 282 283 285 285 286 287 288 289 289 290 290 291 291 291 292 293 293 294 294 295 295 295 295 296 296 296 296 297 297 298 298 299 299 300 300 300 300 300 299 299
278 280 281 283 285 285 286 287 288 289 290 290 291 291 291 292 292 293 293 293 294 295 295 295 295 295 295 295 295 296 297 298 298 298 299 299 300 300 300 300 300 300 300
280 281 282 284 285 286 286 287 288 289 290 291 292 292 293 293 294 294 294 294 295 295 295 295 295 295 295 295 296 297 298 298 299 299 299 300 300 300 300 301 301 301 302
281 282 283 285 286 287 288 288 289 289 290 291 293 293 293 293 293 294 294 294 294 294 295 295 295 295 296 296 297 298 298 299 299 299 300 300 301 301 301 301 301 302 302
281 283 284 286 287 288 288 289 290 290 291 292 293 293 293 294 294 295 295 296 296 296 296 296 296 296 296 297 298 299 299 299 299 299 299 300 300 301 301 301 301 302 303
281 283 285 286 288 289 290 290 291 291 292 292 293 294 294 294 295 296 296 296 297 297 298 298 298 298 298 298 299 299 300 300 300 300 299 300 301 301 301 302 302 303 303
282 284 285 287 288 290 290 291 291 292 293 293 294 294 293 294 295 296 296 297 297 298 299 300 300 299 299 299 300 300 299 299 300 300 300 300 301 301 302 302 302 303 303
284 285 286 287 289 291 292 293 293 293 294 295 295 295 295 295 295 296 297 298 299 299 299 299 300 301 301 301 301 301 301 300 300 301 301 300 301 301 302 302 302 303 304
Height
5861 5862 5862 5863 5863 5864 5864 5864 5863 5863 5863 5862 5861 5860 5859 5859 5858 5857 5856 5854 5853 5852 5851 5850 5848 5847 5846 5844 5843 5842 5840 5839 5838 5836 5834 5832 5830 5828 5826 5824 5823 5821 5819
5858 5859 5859 5860 5860 5860 5860 5860 5860 5860 5859 5859 5858 5857 5856 5855 5854 5853 5852 5850 5849 5848 5847 5846 5844 5843 5842 5840 5839 5837 5836 5834 5833 5831 5829 5828 5826 5823 5821 5820 5818 5816 5814
5855 5855 5856 5856 5857 5857 5857 5856 5856 5856 5855 5855 5854 5853 5852 5851 5850 5849 5847 5846 5845 5844 5843 5841 5840 5839 5837 5836 5834 5833 5831 5829 5828 5826 5824 5822 5820 5818 5816 5814 5812 5810 5808
5851 5852 5852 5853 5853 5853 5853 5853 5852 5852 5851 5851 5850 5849 5848 5847 5845 5844 5843 5842 5840 5839 5838 5836 5835 5834 5832 5831 5829 5827 5826 5824 5822 5820 5819 5817 5814 5812 5810 5808 5806 5803 5801
5848 5848 5849 5849 5849 5849 5849 5848 5848 5847 5847 5846 5845 5844 5843 5842 5841 5840 5838 5837 5836 5834 5833 5831 5830 5828 5827 5825 5823 5822 5820 5818 5816 5814 5812 5810 5808 5806 5803 5801 5798 5796 5793
5844 5844 5844 5844 5844 5844 5844 5844 5843 5843 5842 5841 5840 5839 5838 5837 5836 5835 5833 5832 5831 5829 5827 5826 5824 5823 5821 5819 5817 5815 5813 5811 5810 5807 5805 5803 5801 5798 5796 5793 5790 5788 5785
5840 5840 5840 5840 5840 5840 5840 5839 5839 5838 5837 5836 5835 5834 5833 5832 5831 5829 5828 5826 5825 5823 5822 5820 5819 5817 5815 5813 5811 5809 5806 5804 5802 5800 5797 5795 5792 5790 5788 5785 5782 5779 5776
5835 5835 5835 5835 5835 5835 5835 5834 5833 5833 5832 5831 5830 5829 5828 5826 5825 5824 5822 5820 5819 5817 5816 5814 5812 5810 5808 5806 5804 5802 5799 5796 5794 5791 5789 5786 5783 5781 5778 5775 5772 5770 5767
5830 5830 5831 5830 5830 5830 5829 5829 5828 5827 5826 5825 5824 5823 5822 5820 5819 5818 5816 5814 5813 5811 5809 5807 5806 5804 5802 5799 5797 5794 5791 5789 5786 5783 5780 5777 5774 5771 5768 5765 5762 5759 5756
5825 5825 5825 5825 5825 5824 5824 5823 5823 5822 5821 5819 5818 5817 5816 5814 5813 5811 5810 5808 5806 5804 5802 5800 5798 5796 5794 5791 5789 5786 5783 5781 5778 5775 5771 5768 5764 5761 5757 5754 5750 5747 5744
5820 5820 5820 5820 5819 5819 5818 5818 5817 5816 5815 5813 5812 5811 5809 5808 5806 5805 5803 5801 5799 5797 5795 5793 5791 5788 5786 5783 5780 5777 5774 5771 5768 5765 5762 5758 5754 5750 5746 5742 5738 5735 5731
5815 5815 5815 5814 5814 5813 5813 5812 5811 5810 5808 5807 5806 5804 5802 5801 5799 5797 5796 5794 5792 5790 5787 5785 5782 5780 5777 5774 5771 5768 5765 5761 5758 5754 5751 5747 5743 5739 5734 5730 5726 5721 5717
5810 5810 5809 5809 5808 5807 5806 5805 5804 5803 5802 5800 5799 5797 5795 5793 5792 5790 5788 5785 5783 5781 5778 5776 5773 5771 5768 5765 5761 5758 5754 5751 5747 5743 5739 5735 5730 5726 5722 5717 5713 5708 5703
5804 5804 5803 5803 5802 5801 5800 5799 5798 5796 5795 5793 5792 5790 5788 5786 5784 5782 5779 5777 5774 5772 5769 5766 5764 5761 5758 5754 5751 5747 5743 5739 5735 5731 5726 5722 5717 5713 5708 5704 5699 5694 5690
5798 5797 5797 5796 5795 5794 5793 5792 5790 5789 5787 5786 5784 5782 5780 5778 5775 5773 5770 5768 5765 5762 5759 5756 5753 5750 5747 5743 5739 5735 5731 5727 5722 5718 5713 5709 5704 5699 5694 5689 5685 5680 5675
5791 5790 5789 5789 5788 5786 5785 5784 5782 5781 5779 5777 5775 5773 5771 5768 5766 5763 5760 5757 5754 5752 5749 5745 5742 5738 5735 5731 5727 5723 5719 5714 5710 5705 5700 5695 5690 5686 5681 5675 5670 5665 5660
5784 5783 5782 5781 5780 5779 5777 5776 5774 5772 5770 5768 5766 5763 5761 5758 5755 5752 5750 5747 5744 5740 5737 5734 5730 5726 5722 5718 5714 5710 5706 5701 5696 5692 5687 5682 5677 5671 5666 5661 5656 5650 5645
5776 5775 5774 5773 5771 5770 5768 5767 5765 5763 5761 5758 5756 5753 5750 5747 5744 5742 5739 5735 5732 5729 5725 5721 5718 5714 5710 5706 5701 5697 5692 5688 5683 5678 5673 5668 5662 5657 5652 5646 5641 5635 5630
5767 5766 5765 5764 5762 5761 5759 5757 5755 5753 5751 5748 5745 5742 5739 5736 5733 5730 5726 5723 5720 5716 5713 5709 5705 5701 5697 5692 5688 5683 5679 5674 5669 5664 5659 5654 5648 5643 5637 5632 5626 5621 5615
5758 5757 5756 5754 5753 5751 5749 5747 5745 5742 5740 5737 5734 5731 5728 5725 5722 5718 5714 5711 5707 5703 5700 5696 5691 5687 5683 5678 5674 5669 5665 5660 5655 5650 5645 5640 5634 5628 5623 5618 5612 5607 5601
5749 5747 5746 5744 5743 5741 5738 5736 5734 5731 5729 5726 5723 5719 5716 5713 5709 5705 5702 5698 5694 5690 5686 5682 5677 5673 5668 5664 5659 5655 5651 5646 5641 5636 5631 5625 5620 5614 5609 5603 5598 5593 5587
5738 5737 5736 5734 5732 5730 5727 5725 5722 5720 5717 5714 5710 5707 5703 5699 5696 5692 5689 5685 5680 5676 5672 5667 5663 5658 5654 5649 5645 5640 5636 5631 5626 5621 5616 5611 5606 5601 5595 5590 5584 5579 5574
5727 5726 5725 5723 5720 5718 5716 5713 5710 5707 5704 5701 5697 5694 5690 5687 5683 5679 5675 5671 5667 5662 5657 5653 5648 5644 5639 5635 5630 5626 5622 5617 5612 5607 5602 5597 5592 5587 5581 5576 5571 5566 5560
5716 5715 5713 5711 5709 5706 5703 5701 5698 5695 5691 5688 5684 5681 5677 5674 5670 5666 5662 5658 5653 5649 5644 5639 5634 5630 5625 5621 5616 5612 5607 5602 5597 5593 5588 5583 5578 5573 5568 5563 5558 5552 5547
5705 5703 5701 5699 5697 5694 5691 5688 5685 5682 5678 5675 5671 5668 5664 5661 5657 5653 5649 5644 5640 5635 5631 5626 5621 5617 5612 5607 5603 5598 5593 5588 5583 5579 5574 5569 5564 5560 5555 5550 5544 5539 5534
5693 5691 5689 5687 5684 5681 5678 5675 5672 5669 5666 5662 5658 5655 5651 5648 5644 5640 5636 5632 5627 5623 5618 5613 5608 5603 5598 5594 5589 5585 5580 5575 5570 5565 5560 5556 5551 5546 5541 5537 5532 5527 5522